Location: Katowice
(50.2611°N, 19.0242°E)
Time: 05:00:20
(UTC+02:00)

Tiros 1 - All Passes

Search period start: 14 October 2019 00:00
Search period end: 24 October 2019 00:00
Orbit: 630 x 664 km, 48.4° (Epoch: 13 October)

Date Brightness Start Highest point End Pass type
(mag) Time Alt. Az. Time Alt. Az. Time Alt. Az.
14 Oct - 04:33:28 10° SSW 04:37:21 25° SE 04:41:17 10° E visible
14 Oct - 06:14:18 10° WSW 06:19:02 59° SSE 06:23:46 10° E visible
14 Oct - 07:56:18 10° W 08:01:06 71° S 08:05:53 10° ESE daylight
14 Oct - 09:38:31 10° W 09:43:01 40° SSW 09:47:29 10° SE daylight
14 Oct - 11:22:05 10° WSW 11:24:19 13° SW 11:26:34 10° SSW daylight
15 Oct - 03:19:37 10° SSE 03:21:49 13° SE 03:24:00 10° ESE visible
15 Oct - 04:58:38 10° SW 05:03:06 40° SSE 05:07:37 10° E visible
15 Oct - 06:40:14 10° WSW 06:45:01 70° S 06:49:50 10° E daylight
15 Oct - 08:22:21 10° W 08:27:06 59° SSW 08:31:49 10° ESE daylight
15 Oct - 10:04:50 10° W 10:08:46 25° SW 10:12:41 10° SSE daylight
16 Oct - 03:43:34 10° SSW 03:47:22 24° SE 03:51:12 10° E visible
16 Oct - 05:24:18 10° WSW 05:29:01 57° SSE 05:33:44 10° E visible
16 Oct - 07:06:16 10° W 07:11:04 71° S 07:15:51 10° E daylight
16 Oct - 08:48:28 10° W 08:53:01 42° SSW 08:57:31 10° SE daylight
16 Oct - 10:31:50 10° WSW 10:34:21 14° SW 10:36:53 10° S daylight
17 Oct - 02:30:01 10° SSE 02:31:51 12° SE 02:33:41 10° ESE visible
17 Oct - 04:08:40 10° SW 04:13:06 38° SSE 04:17:34 10° E visible
17 Oct - 05:50:12 10° WSW 05:55:00 70° S 05:59:48 10° E visible
17 Oct - 07:32:19 10° W 07:37:05 61° SSW 07:41:49 10° ESE daylight
17 Oct - 09:14:45 10° W 09:18:47 27° SSW 09:22:47 10° SSE daylight
18 Oct - 02:53:41 10° SSW 02:57:23 22° SE 03:01:05 10° E visible
18 Oct - 04:34:18 10° WSW 04:38:59 55° SSE 04:43:42 10° E visible
18 Oct - 06:16:14 10° W 06:21:02 72° S 06:25:50 10° E visible
18 Oct - 07:58:25 10° W 08:03:01 44° SSW 08:07:33 10° SE daylight
18 Oct - 09:41:37 10° WSW 09:44:23 15° SW 09:47:09 10° S daylight
19 Oct - 01:40:31 10° SSE 01:41:53 11° SE 01:43:15 10° ESE night (unlit)
19 Oct - 03:18:43 10° SW 03:23:06 36° SSE 03:27:31 10° E visible
19 Oct - 05:00:11 10° WSW 05:04:58 69° S 05:09:46 10° E visible
19 Oct - 06:42:17 10° W 06:47:03 62° SSW 06:51:48 10° ESE daylight
19 Oct - 08:24:41 10° W 08:28:47 28° SSW 08:32:53 10° SSE daylight
20 Oct - 02:03:50 10° SSW 02:07:24 21° SE 02:10:59 10° E visible
20 Oct - 03:44:18 10° WSW 03:48:58 53° SSE 03:53:40 10° E visible
20 Oct - 05:26:12 10° W 05:31:00 72° S 05:35:48 10° E visible
20 Oct - 07:08:23 10° W 07:12:59 46° SSW 07:17:34 10° SE daylight
20 Oct - 08:51:26 10° W 08:54:25 16° SW 08:57:23 10° S daylight
21 Oct - 00:51:23 10° SE 00:51:55 10° SE 00:52:27 10° SE night (unlit)
21 Oct - 02:28:46 10° SW 02:33:06 35° SSE 02:37:27 10° E visible
21 Oct - 04:10:10 10° WSW 04:14:56 68° S 04:19:44 10° E visible
21 Oct - 05:52:15 10° W 05:57:01 64° SSW 06:01:47 10° ESE visible
21 Oct - 07:34:37 10° W 07:38:47 30° SSW 07:42:58 10° SSE daylight
22 Oct - 01:14:00 10° S 01:17:25 20° SE 01:20:52 10° E night (unlit)
22 Oct - 02:54:19 10° SW 02:58:56 51° SSE 03:03:37 10° E visible
22 Oct - 04:36:10 10° W 04:40:58 72° S 04:45:47 10° E visible
22 Oct - 06:18:20 10° W 06:22:58 48° SSW 06:27:35 10° SE visible
22 Oct - 08:01:16 10° W 08:04:26 18° SW 08:07:34 10° S daylight
23 Oct - 01:38:50 10° SW 01:43:06 33° SSE 01:47:23 10° E night (unlit)
23 Oct - 03:20:09 10° WSW 03:24:55 66° S 03:29:42 10° E visible
23 Oct - 05:02:13 10° W 05:07:00 65° S 05:11:46 10° ESE visible
23 Oct - 06:44:33 10° W 06:48:47 31° SSW 06:53:01 10° SSE visible
